Regional Weather Roundup
Issued by NWS

Home | Current Version | Previous Version | Text Only | Print | Product List | Glossary Off
Versions: 1 2 3 4 5 6 7 8 9 10 11 12 13 14 15 16 17 18 19 20 21 22 23 24 25 26 27 28 29 30 31 32 33 34 35 36 37 38 39 40 41 42 43 44 45 46 47 48 49 50

000
ASUS45 KBOU 121807
RWRCO

WEATHER ROUNDUP FOR COLORADO
NATIONAL WEATHER SERVICE DENVER/BOULDER CO
1100 AM MST FRI FEB 12 2016

NOTE: "FAIR" INDICATES FEW OR NO CLOUDS BELOW 12000 FEET WITH NO
SIGNIFICANT WEATHER AND/OR OBSTRUCTIONS TO VISIBILITY.

COZ001>005-013-030-031-121900-
...NORTHWEST COLORADO...

CITY           SKY/WX    TMP DP  RH WIND       PRES   REMARKS
CRAIG          FAIR      21  15  78 CALM      30.44F
HAYDEN         FAIR      28  18  64 NE7       30.43F WCI  21
MEEKER         FAIR      32  19  58 CALM      30.43F
MOUNT WERNER   NOT AVBL
STEAMBOAT SPGS FAIR      28  17  62 CALM      30.43F
WALDEN         FAIR      37  19  48 S14       30.42S
$$

COZ006>008-011-121900-
...WEST CENTRAL VALLEYS...

CITY           SKY/WX    TMP DP  RH WIND       PRES   REMARKS
GRAND JUNCTION FAIR      38  26  62 CALM      30.45S
MONTROSE       FAIR      41  20  43 CALM      30.46F
EAGLE          SUNNY     30  18  59 CALM      30.50F
RIFLE          FAIR      34  18  52 CALM      30.46F
DELTA          FAIR      42  23  46 E3        30.46F
NUCLA          FAIR      39  23  52 CALM      30.48F
$$

COZ017>023-064>068-121900-
...SOUTHWEST COLORADO...

CITY           SKY/WX    TMP DP  RH WIND       PRES   REMARKS
DURANGO        FAIR      37  23  56 NE5       30.44S
CORTEZ         FAIR      43  20  39 CALM      30.44F
PAGOSA SPRINGS FAIR      44  14  30 CALM      30.46S
TELLURIDE      FAIR      44  20  38 CALM      30.52R
WOLF CREEK PAS FAIR      37  14  38 N3        30.63R
$$

COZ009-010-012-014-032>034-037-058>063-121900-
...CENTRAL COLORADO...

CITY           SKY/WX    TMP DP  RH WIND       PRES   REMARKS
ASPEN          FAIR      41  20  43 CALM      30.44F
BUENA VISTA    FAIR      44  16  32 CALM      30.44R
COPPER MTN     FAIR      36  18  48 W22G32    30.54F
BERTHOUD PASS  FAIR      28  18  64 NW39G46   30.48S WCI  11
COTTONWOOD PAS FAIR      46  14  27 E7        30.49R
GUNNISON       FAIR       3  -6  66 CALM      30.60F
KREMMLING      FAIR      14   5  67 CALM      30.51F
LEADVILLE      FAIR      43  18  36 NW8       30.47R
MONARCH PASS   FAIR      32  12  43 SW16G23   30.66R WCI  21
SALIDA         NOT AVBL
SUNLIGHT       FAIR      41  21  45 CALM      30.57
WILKERSON PASS FAIR      37  18  44 SW5       30.55R
$$

COZ069>075-121900-
...SAN LUIS VALLEY/SANGRE DE CRISTO MOUNTAINS...

CITY           SKY/WX    TMP DP  RH WIND       PRES   REMARKS
ALAMOSA        FAIR      42  23  46 S3        30.48R
LA VETA PASS   FAIR      43  14  31 S8        30.50S
SAGUACHE       FAIR      41  14  33 CALM      30.48F
$$

COZ035-036-038>040-121900-
...NORTHERN COLORADO FRONT RANGE...

CITY           SKY/WX    TMP DP  RH WIND       PRES   REMARKS
DENVER INTL AP FAIR      46  28  49 VRB3      30.31S
DMNS CITY PARK   N/A     52  27  37 N7        30.31S
AURORA         MOSUNNY   48  28  45 NW2       30.31S
FRONT RANGE AP MOSUNNY   46  28  49 MISG      30.32S
ERIE MUNI ARPT FAIR      45  27  49 N6        30.32S
BOULDER MUN AP FAIR      46  27  46 CALM      30.30F
CENTENNIAL     FAIR      50  28  42 VRB5      30.31R
BROOMFIELD     PTSUNNY   48  27  43 N7        30.31F
FORT COLLINS   FAIR      45  28  53 N5        30.33S
LONGMONT       FAIR      50  29  44 NE7       30.33S
$$

COZ041-046-047-076>085-087-088-121900-
...PIKES PEAK/PALMER DIVIDE AND SOUTHERN FOOTHILLS...

CITY           SKY/WX    TMP DP  RH WIND       PRES   REMARKS
COLO. SPRINGS  FAIR      49  25  39 CALM      30.35S
A. F. ACADEMY  SUNNY     49  26  40 S7        30.33S
SCHRIEVER AFB  FAIR      47  23  38 SE6       30.34S
ELLICOTT       FAIR     N/A N/A N/A SW6       30.33S
FALCON         FAIR      48  24  39 CALM      30.36S
FORT CARSON    FAIR      46  26  45 MISG      30.32F
LIMON          CLOUDY    45  29  53 S8        30.33S
MONUMENT HILL  FAIR      50  23  34 W5        30.35S
TRINIDAD       FAIR      61  17  18 E6        30.33S
$$

COZ042>045-048>051-090-091-121900-
...NORTHEAST COLORADO...

CITY           SKY/WX    TMP DP  RH WIND       PRES   REMARKS
GREELEY ARPT   FAIR      37  30  75 CALM      30.34S
AKRON          CLOUDY    45  30  55 NE8       30.34R
BURLINGTON     CLOUDY    46  30  53 SE7       30.35R
WRAY           NOT AVBL
STERLING       CLOUDY    43  32  65 CALM      30.34S
HOLYOKE        FAIR      37  34  87 E10       30.39R
FORT MORGAN    FAIR      44  31  59 E8        30.34S
$$

COZ086-089-092>099-121900-
...SOUTHEAST COLORADO...

CITY           SKY/WX    TMP DP  RH WIND       PRES   REMARKS
PUEBLO         FAIR      52  26  36 CALM      30.32F
LA JUNTA       FAIR      54  28  36 CALM      30.32F
LAMAR          FAIR      53  30  41 E5        30.32F
SPRINGFIELD      N/A     57  27  31 S12G18    30.35S
$$



USA.gov is the U.S. government's official web portal to all federal, state and local government web resources and services.